Regional Weather Roundup
Issued by NWS

Home | Current Version | Previous Version | Graphics & Text | Print | Product List | Glossary On
Versions: 1 2 3 4 5 6 7 8 9 10 11 12 13 14 15 16 17 18 19 20 21 22 23 24 25 26 27 28 29 30 31 32 33 34 35 36 37 38 39 40 41 42 43 44 45 46 47 48 49 50
000
ASUS43 KDMX 311507
RWRIA

WEATHER ROUNDUP FOR IOWA
NATIONAL WEATHER SERVICE DES MOINES IA
1000 AM CDT MON AUG 31 2015

NOTE: "FAIR" INDICATES FEW OR NO CLOUDS BELOW 12,000 FEET WITH NO
SIGNIFICANT WEATHER AND/OR OBSTRUCTIONS TO VISIBILITY.

* - THESE STATIONS ARE NOT NWS STATIONS...THUS NOT UNDER NWS
QUALITY CONTROL.  THEY ALSO DO NOT REPORT WEATHER SUCH
AS PRECIPITATION OR FOG.

IAZ001>003-012>014-020>022-031>034-043>046-311600-
   NORTHWEST IOWA

CITY           SKY/WX    TMP DP  RH WIND       PRES   REMARKS
CARROLL *      SUNNY     72  72 100 S7        29.98S
CHEROKEE *     CLOUDY    70  70 100 S8        29.96S FOG
DENISON *      MOSUNNY   72  70  94 VRB5      29.96S FOG
LE MARS *      PTSUNNY   72  70  94 S10       29.95R FOG
ORANGE CITY *  CLOUDY    70  70 100 S10       29.95R FOG
SHELDON *      CLOUDY    70  68  94 S10G17    29.94R FOG
SIOUX CITY     CLOUDY    69  67  93 S13       29.94S FOG
SPENCER        CLOUDY    70  67  90 S9        29.96S FOG
STORM LAKE *   MOSUNNY   70  70 100 S9        29.98S FOG
$$

IAZ055>058-069>071-079>083-090>094-311600-
   SOUTHWEST IOWA

CITY           SKY/WX    TMP DP  RH WIND       PRES   REMARKS
ATLANTIC *     SUNNY     73  73 100 S7        29.99R
AUDUBON *      SUNNY     72  70  94 S5        30.00S
CLARINDA *     CLOUDY    72  72 100 SE6       30.01R FOG
COUNCIL BLFS * MOSUNNY   72  70  94 SE6       29.98S FOG
CRESTON *      MOSUNNY   75  72  88 S10       30.02R FOG
HARLAN  *      MOSUNNY   72 -36   1 S8        30.01S HAZE
LAMONI         MOSUNNY   76  72  87 S7        30.01S
RED OAK *      PTSUNNY   73  73 100 CALM      29.99R
SHENANDOAH *   MOSUNNY   75  72  88 SE5       29.99R
$$

IAZ047>049-059>061-072>074-084-311600-
   CENTRAL IOWA

CITY           SKY/WX    TMP DP  RH WIND       PRES   REMARKS
AMES           SUNNY     72  70  93 SE5       30.00S FOG
ANKENY *       SUNNY     75  73  94 SE5       29.99S
CHARITON *     SUNNY     77  72  83 SE8       30.01S
DES MOINES     MOSUNNY   76  70  82 S7        29.99S
GRINNELL*      SUNNY     75  70  83 SE10      30.03S
KNOXVILLE *    SUNNY     75  72  88 SE6       30.00S
MARSHALLTOWN   SUNNY     72  69  90 SE8       30.00S
PELLA *        SUNNY     77  73  88 SE5       30.02S
PERRY *        CLOUDY    72  72 100 CALM      30.00R
$$

IAZ004>006-015-016-023>025-035-036-311600-
   NORTH CENTRAL IOWA

CITY           SKY/WX    TMP DP  RH WIND       PRES   REMARKS
ALGONA *       SUNNY     72  70  94 S14       29.98S
CLARION *      SUNNY     73  70  88 S12       29.99S
ESTHERVILLE    FOG       66  66 100 S12       29.96S VSB 3/4
FORT DODGE *   PTSUNNY   73  68  83 S8        30.00R
MASON CITY     MOSUNNY   69  68  96 S10       30.01S
FOREST CITY *  MOSUNNY   70  70 100 S7        29.99S
IOWA FALLS *     N/A     72  70  94 SE5       30.02S
$$

IAZ007>011-017>019-026>030-037>042-050>054-066-311600-
   NORTHEAST IOWA

CITY           SKY/WX    TMP DP  RH WIND       PRES   REMARKS
CEDAR RAPIDS   SUNNY     73  72  96 SE6       30.03S FOG
CHARLES CITY * CLOUDY    68  68 100 VRB6      30.03R FOG
CLINTON *      SUNNY     72  68  88 S7        30.08S
DECORAH *      SUNNY     72  68  88 VRB7G16   30.02S
DUBUQUE        SUNNY     71  68  90 S8        30.07R FOG
MONTICELLO *   SUNNY     72  70  94 VRB7      30.05S FOG
OELWEIN *        N/A     72  70  94 S9        30.04S FOG
WATERLOO       SUNNY     70  67  90 SE7       30.01S
$$

IAZ064-065-067-068-078-311600-
   EAST CENTRAL IOWA

CITY           SKY/WX    TMP DP  RH WIND       PRES   REMARKS
DAVENPORT      SUNNY     75  69  81 SE6       30.06S
IOWA CITY      SUNNY     74  69  85 SE6       30.04F
MT. PLEASANT * SUNNY     79  70  73 S3        30.04S HX  81
MUSCATINE *    SUNNY     75  68  78 SE6       30.04S
QUAD CITIES    SUNNY     76  70  82 E3        30.04S
$$

IAZ062-063-075>077-085>089-095>099-311600-
   SOUTHEAST IOWA

CITY           SKY/WX    TMP DP  RH WIND       PRES   REMARKS
BURLINGTON     SUNNY     76  71  85 SE5       30.04S
FAIRFIELD *    SUNNY     77  70  78 S7        30.03S
FORT MADISON * SUNNY     75  75 100 S3        30.05S
KEOKUK *       SUNNY     79  72  78 VRB3      30.04R HX  82
OSKALOOSA *      N/A     75  72  88 S6        30.03S
CENTERVILLE *  SUNNY     77  72  83 S6        30.04S
OTTUMWA        SUNNY     76  72  87 S7        30.01S
WASHINGTON *     N/A    N/A N/A N/A MISG        N/A
$$

ABBREVIATIONS USED IN REMARKS
   TC - TEMPERATURES IN CELSIUS
  WCI - WIND CHILL INDEX
   HX - HEAT INDEX
  VSB - VISIBILITY
$$




USA.gov is the U.S. government's official web portal to all federal, state and local government web resources and services.